Regional Weather Roundup
Issued by NWS

Home | Current Version | Previous Version | Graphics & Text | Print | Product List | Glossary On
Versions: 1 2 3 4 5 6 7 8 9 10 11 12 13 14 15 16 17 18 19 20 21 22 23 24 25 26 27 28 29 30 31 32 33 34 35 36 37 38 39 40 41 42 43 44 45 46 47 48 49 50
384
ASUS43 KDTX 240310
RWRMI
MICHIGAN HOURLY REGIONAL WEATHER ROUNDUP
NATIONAL WEATHER SERVICE DETROIT/PONTIAC MI
1100 PM EDT WED AUG 23 2017

NOTE: "FAIR" INDICATES FEW OR NO CLOUDS BELOW 12,000 FEET WITH NO
SIGNIFICANT WEATHER AND/OR OBSTRUCTION TO VISIBILITY.

MIZ047>049-052>055-059>063-066>070-074>076-081>083-240400-
SOUTHEAST LOWER MICHIGAN

CITY           SKY/WX    TMP DP  RH WIND       PRES   REMARKS
ADRIAN         CLEAR     60  52  74 NW7       30.00S
ALMA           CLEAR     51  48  88 CALM      30.03R
ANN ARBOR      CLOUDY    66  53  63 NW8       29.99R
BAD AXE        MOCLDY    57  54  90 CALM      30.01R
CARO           CLEAR     52  48  87 NW3       30.00R
DETROIT CITY   MOCLDY    66  52  60 N5        29.98R
DETROIT        MOCLDY    66  53  63 NW7       29.98S
FLINT          CLEAR     60  47  61 N5        30.01R
GROSSE ILE     CLOUDY    69  52  55 N3        29.96S
HILLSDALE      MOCLDY    55  50  82 NW5       30.02R
HOWELL         CLEAR     60  50  69 NW6       30.01R

CITY           SKY/WX    TMP DP  RH WIND       PRES   REMARKS
JACKSON        CLEAR     61  51  70 CALM      30.02R
LAMBERTVILLE   CLEAR     57  52  84 CALM      29.98S
LANSING        CLEAR     56  49  77 CALM      30.03R
LAPEER         CLOUDY    61  49  65 CALM      30.00S
MASON          CLEAR     61  50  66 NW5       30.02R
MONROE         PTCLDY    61  54  79 NW3       29.97S
MT. CLEMENS    PTCLDY    62  54  74 NW7       29.97S
PONTIAC        PTCLDY    62  50  64 N8        29.99R
PORT HOPE        N/A     63  53  70 VRB5G18   29.98R
PORT HURON       N/A     54  52  94 NW3       29.98S FOG
TRI CITIES     CLEAR     57  50  77 N5        30.02R
MIDLAND        FAIR      53  49  88 CALM      30.02R
TROY           PTCLDY    65  50  59 N7        30.00S
SAGINAW HB     CLEAR     54  48  82 NW5       30.01R
$$
MIZ043>046-050>051-056>058-064>065-071>073-077>080-240400-
SOUTHWEST LOWER MICHIGAN

CITY           SKY/WX    TMP DP  RH WIND       PRES   REMARKS
BATTLE CREEK   CLEAR     59  52  77 CALM      30.03S
BENTON HARBOR  CLEAR     57  53  86 CALM      30.03S
BIG RAPIDS     CLEAR     51  46  84 CALM      30.03S
COLDWATER      CLEAR     56  50  80 CALM      30.02S
FREMONT        FAIR      54  52  94 CALM      30.03S
HOLLAND        CLEAR     55  52  89 CALM      30.04R
GRAND RAPIDS   CLEAR     59  50  72 N3        30.03S
IONIA          FAIR      58  47  67 W3        30.03R
KALAMAZOO      CLEAR     59  50  72 CALM      30.04S
LUDINGTON      CLEAR     52  51  97 CALM      30.04R
MARSHALL       CLEAR     59  52  78 CALM      30.02S
MOUNT PLEASANT CLEAR     56  51  83 CALM      30.02R
MUSKEGON       PTCLDY    57  52  83 CALM      30.03S
SOUTH HAVEN    CLEAR     56  54  94 CALM      30.03S
$$
MIZ016>042-240400-
NORTHERN LOWER MICHIGAN

CITY           SKY/WX    TMP DP  RH WIND       PRES   REMARKS
ALPENA         CLEAR     55  51  86 NW6       30.01S
BEAVER ISLAND  CLEAR     55  46  71 NW10G20   30.05R
BELLAIRE       CLEAR     52  47  83 N3        30.04R
CADILLAC       CLEAR     48  45  90 NW5       30.04R
CHARLEVOIX     CLEAR     56  45  64 N9        30.07S
FRANKFORT      CLEAR     57  53  86 CALM      30.04S
GAYLORD        CLEAR     51  46  83 VRB5      30.04R
GRAYLING       CLEAR     46  44  91 CALM      30.04R
HARBOR SPRINGS CLEAR     50  46  85 CALM      30.04R
HOUGHTON LAKE  CLEAR     53  47  79 NW6       30.03S
MANISTEE       CLEAR     51  50  96 CALM      30.03R
OSCODA         CLEAR     53  47  80 NW3       30.00R
PELLSTON       CLEAR     51  46  83 NW5       30.04R
ROGERS CITY    MOCLDY    56  49  75 NW7G16    30.02S
TRAVERSE CITY  PTCLDY    60  49  66 N6        30.02R
$$
MIZ007>008-015-240400-
EASTERN UPPER MICHIGAN

CITY           SKY/WX    TMP DP  RH WIND       PRES   REMARKS
KINROSS        CLOUDY    52  47  83 W8        30.03R
MACKINAC ISLAN CLEAR     53  46  78 NW7       30.03S
NEWBERRY       MOCLDY    47  46  97 NW5       30.04R
S. S. MARIE    PTCLDY    56  50  80 W6        30.01R
MUNISING         N/A     58  50  75 N15       30.05R
$$
MIZ004>006-011>014-085-240400-
CENTRAL UPPER MICHIGAN

CITY           SKY/WX    TMP DP  RH WIND       PRES   REMARKS
MANISTIQUE     PTCLDY    46  40  81 NW3       30.05S
ESCANABA       CLEAR     51  44  77 NW5       30.07R
MENOMINEE      CLOUDY    56  45  66 NE10      30.08R
SAWYER-GWINN     N/A    N/A N/A N/A MISG        N/A
$$
MIZ001>003-009>011-084-240400-
WESTERN UPPER MICHIGAN

CITY           SKY/WX    TMP DP  RH WIND       PRES   REMARKS
IRON MOUNTAIN  CLEAR     49  38  65 N5        30.07S
HOUGHTON       CLEAR     44  40  85 N5        30.08S
COPPER HARBOR    N/A     51  44  77 W6        30.07S
IRONWOOD       CLOUDY    48  45  89 CALM      30.09F
$$

ABBREVIATIONS USED IN REMARKS
   TC - TEMPERATURE IN CELSIUS
  WCI - WIND CHILL INDEX
   HX - HEAT INDEX
  VSB - VISIBILITY





USA.gov is the U.S. government's official web portal to all federal, state and local government web resources and services.